owner,sensor,date,latitude,longitude,vertical_datum,direction_of_sea_water_velocity,sea_water_speed,upward_sea_water_velocity,qcFlag 
TABS,ioos:station:wmo:42045:1,2009-06-01T00:00:00Z,26.2168,-96.4998,2.0,247.9788127,10.6682754,-99999.0,'11111222,11111222,99999999' 
TABS,ioos:station:wmo:42045:1,2009-06-01T00:30:00Z,26.2168,-96.4998,2.0,253.8074018,11.79800831,-99999.0,'11111222,11111222,99999999' 
TABS,ioos:station:wmo:42045:1,2009-06-01T01:00:00Z,26.2168,-96.4998,2.0,275.5084825,13.23109217,-99999.0,'11111222,11111222,99999999' 
TABS,ioos:station:wmo:42045:1,2009-06-01T01:30:00Z,26.2168,-96.4998,2.0,286.3293183,13.3380096,-99999.0,'11111222,11111222,99999999' 
TABS,ioos:station:wmo:42045:1,2009-06-01T02:00:00Z,26.2168,-96.4998,2.0,298.105762,13.30941396,-99999.0,'11111222,11111222,99999999' 
TABS,ioos:station:wmo:42045:1,2009-06-01T02:30:00Z,26.2168,-96.4998,2.0,318.618558,12.66123612,-99999.0,'11111222,11111222,99999999' 
TABS,ioos:station:wmo:42045:1,2009-06-01T03:00:00Z,26.2168,-96.4998,2.0,297.6385458,15.52103412,-99999.0,'11111222,11111222,99999999' 
TABS,ioos:station:wmo:42045:1,2009-06-01T03:30:00Z,26.2168,-96.4998,2.0,307.6676844,13.79533617,-99999.0,'11111222,11111222,99999999' 
TABS,ioos:station:wmo:42045:1,2009-06-01T04:00:00Z,26.2168,-96.4998,2.0,317.8056624,15.60333298,-99999.0,'11111222,11111222,99999999' 
TABS,ioos:station:wmo:42045:1,2009-06-01T04:30:00Z,26.2168,-96.4998,2.0,326.92961,11.80193628,-99999.0,'11111222,11111222,99999999' 
TABS,ioos:station:wmo:42045:1,2009-06-01T05:00:00Z,26.2168,-96.4998,2.0,320.3260439,16.7600716,-99999.0,'11111222,11111222,99999999' 
TABS,ioos:station:wmo:42045:1,2009-06-01T05:30:00Z,26.2168,-96.4998,2.0,338.003576,14.71087013,-99999.0,'11111222,11111222,99999999' 
TABS,ioos:station:wmo:42045:1,2009-06-01T06:00:00Z,26.2168,-96.4998,2.0,345.4092346,14.52856497,-99999.0,'11111222,11111222,99999999' 
TABS,ioos:station:wmo:42045:1,2009-06-01T06:30:00Z,26.2168,-96.4998,2.0,332.3303603,17.16277658,-99999.0,'11111222,11111222,99999999' 
TABS,ioos:station:wmo:42045:1,2009-06-01T07:00:00Z,26.2168,-96.4998,2.0,350.6291058,11.3616284,-99999.0,'11111222,11111222,99999999' 
TABS,ioos:station:wmo:42045:1,2009-06-01T07:30:00Z,26.2168,-96.4998,2.0,0.829891231,13.12137569,-99999.0,'11111222,11111222,99999999' 
TABS,ioos:station:wmo:42045:1,2009-06-01T08:00:00Z,26.2168,-96.4998,2.0,7.250950205,16.95558905,-99999.0,'11111222,11111222,99999999' 
TABS,ioos:station:wmo:42045:1,2009-06-01T08:30:00Z,26.2168,-96.4998,2.0,8.09448083,15.83778078,-99999.0,'11111222,11111222,99999999' 
TABS,ioos:station:wmo:42045:1,2009-06-01T09:00:00Z,26.2168,-96.4998,2.0,38.42626058,15.31764995,-99999.0,'11111222,11111222,99999999' 
TABS,ioos:station:wmo:42045:1,2009-06-01T09:30:00Z,26.2168,-96.4998,2.0,41.92047186,15.92583122,-99999.0,'11111222,11111222,99999999' 
TABS,ioos:station:wmo:42045:1,2009-06-01T10:00:00Z,26.2168,-96.4998,2.0,37.52416457,16.46707321,-99999.0,'11111222,11111222,99999999' 
TABS,ioos:station:wmo:42045:1,2009-06-01T10:30:00Z,26.2168,-96.4998,2.0,52.05215405,17.22104817,-99999.0,'11111222,11111222,99999999' 
TABS,ioos:station:wmo:42045:1,2009-06-01T11:00:00Z,26.2168,-96.4998,2.0,49.04828634,15.42512885,-99999.0,'11111222,11111222,99999999' 
TABS,ioos:station:wmo:42045:1,2009-06-01T11:30:00Z,26.2168,-96.4998,2.0,57.18926639,22.77312451,-99999.0,'11111222,11111222,99999999' 
TABS,ioos:station:wmo:42045:1,2009-06-01T12:00:00Z,26.2168,-96.4998,2.0,51.42515791,20.03086868,-99999.0,'11111222,11111222,99999999' 
TABS,ioos:station:wmo:42045:1,2009-06-01T12:30:00Z,26.2168,-96.4998,2.0,69.61138771,18.82966011,-99999.0,'11111222,11111222,99999999' 
TABS,ioos:station:wmo:42045:1,2009-06-01T13:00:00Z,26.2168,-96.4998,2.0,74.69053959,13.86190824,-99999.0,'11111222,11111222,99999999' 
TABS,ioos:station:wmo:42045:1,2009-06-01T13:30:00Z,26.2168,-96.4998,2.0,81.68293002,17.7668596,-99999.0,'11111222,11111222,99999999' 
TABS,ioos:station:wmo:42045:1,2009-06-01T14:00:00Z,26.2168,-96.4998,2.0,82.03360718,21.28541519,-99999.0,'11111222,11111222,99999999' 
TABS,ioos:station:wmo:42045:1,2009-06-01T14:30:00Z,26.2168,-96.4998,2.0,95.4126894,21.62643059,-99999.0,'11111222,11111222,99999999' 
TABS,ioos:station:wmo:42045:1,2009-06-01T15:00:00Z,26.2168,-96.4998,2.0,95.78866821,24.09285786,-99999.0,'11111222,11111222,99999999' 
TABS,ioos:station:wmo:42045:1,2009-06-01T15:30:00Z,26.2168,-96.4998,2.0,92.4224038,22.2398741,-99999.0,'11111222,11111222,99999999' 
TABS,ioos:station:wmo:42045:1,2009-06-01T16:00:00Z,26.2168,-96.4998,2.0,105.5008221,26.37951667,-99999.0,'11111222,11111222,99999999' 
TABS,ioos:station:wmo:42045:1,2009-06-01T16:30:00Z,26.2168,-96.4998,2.0,116.3792487,23.45200418,-99999.0,'11111222,11111222,99999999' 
TABS,ioos:station:wmo:42045:1,2009-06-01T17:00:00Z,26.2168,-96.4998,2.0,123.0737908,24.49975102,-99999.0,'11111222,11111222,99999999' 
TABS,ioos:station:wmo:42045:1,2009-06-01T17:30:00Z,26.2168,-96.4998,2.0,128.0150391,25.81715709,-99999.0,'11111222,11111222,99999999' 
TABS,ioos:station:wmo:42045:1,2009-06-01T18:00:00Z,26.2168,-96.4998,2.0,134.2737969,23.43540057,-99999.0,'11111222,11111222,99999999' 
TABS,ioos:station:wmo:42045:1,2009-06-01T18:30:00Z,26.2168,-96.4998,2.0,143.3821239,29.54028605,-99999.0,'11111222,11111222,99999999' 
TABS,ioos:station:wmo:42045:1,2009-06-01T19:00:00Z,26.2168,-96.4998,2.0,154.9983537,31.46872098,-99999.0,'11111222,11111222,99999999' 
TABS,ioos:station:wmo:42045:1,2009-06-01T19:30:00Z,26.2168,-96.4998,2.0,160.9097039,30.97337244,-99999.0,'11111222,11111222,99999999' 
TABS,ioos:station:wmo:42045:1,2009-06-01T20:00:00Z,26.2168,-96.4998,2.0,163.5918593,28.07329336,-99999.0,'11111222,11111222,99999999' 
TABS,ioos:station:wmo:42045:1,2009-06-01T20:30:00Z,26.2168,-96.4998,2.0,172.2379451,31.24627978,-99999.0,'11111222,11111222,99999999' 
TABS,ioos:station:wmo:42045:1,2009-06-01T21:00:00Z,26.2168,-96.4998,2.0,188.114375,26.14173866,-99999.0,'11111222,11111222,99999999' 
TABS,ioos:station:wmo:42045:1,2009-06-01T21:30:00Z,26.2168,-96.4998,2.0,192.7973684,30.51811265,-99999.0,'11111222,11111222,99999999' 
TABS,ioos:station:wmo:42045:1,2009-06-01T22:00:00Z,26.2168,-96.4998,2.0,199.8347043,28.08624752,-99999.0,'11111222,11111222,99999999' 
TABS,ioos:station:wmo:42045:1,2009-06-01T22:30:00Z,26.2168,-96.4998,2.0,204.2918336,28.41594799,-99999.0,'11111222,11111222,99999999' 
TABS,ioos:station:wmo:42045:1,2009-06-01T23:00:00Z,26.2168,-96.4998,2.0,192.6547121,28.57414916,-99999.0,'11111222,11111222,99999999' 
TABS,ioos:station:wmo:42045:1,2009-06-01T23:30:00Z,26.2168,-96.4998,2.0,198.9867966,30.52055864,-99999.0,'11111222,11111222,99999999' 
TABS,ioos:station:wmo:42045:1,2009-06-02T00:00:00Z,26.2168,-96.4998,2.0,207.5212114,26.79182711,-99999.0,'11111222,11111222,99999999' 
TABS,ioos:station:wmo:42045:1,2009-06-02T00:30:00Z,26.2168,-96.4998,2.0,211.2610404,29.05911217,-99999.0,'11111222,11111222,99999999' 
TABS,ioos:station:wmo:42045:1,2009-06-02T01:00:00Z,26.2168,-96.4998,2.0,214.1640588,25.46438493,-99999.0,'11111222,11111222,99999999' 
TABS,ioos:station:wmo:42045:1,2009-06-02T01:30:00Z,26.2168,-96.4998,2.0,236.0887382,20.1468608,-99999.0,'11111222,11111222,99999999' 
TABS,ioos:station:wmo:42045:1,2009-06-02T02:00:00Z,26.2168,-96.4998,2.0,246.2027476,22.1315928,-99999.0,'11111222,11111222,99999999' 
TABS,ioos:station:wmo:42045:1,2009-06-02T02:30:00Z,26.2168,-96.4998,2.0,255.3066273,23.06422771,-99999.0,'11111222,11111222,99999999' 
TABS,ioos:station:wmo:42045:1,2009-06-02T03:00:00Z,26.2168,-96.4998,2.0,270.5014632,22.87087449,-99999.0,'11111222,11111222,99999999' 
TABS,ioos:station:wmo:42045:1,2009-06-02T03:30:00Z,26.2168,-96.4998,2.0,278.3490907,25.20712598,-99999.0,'11111222,11111222,99999999' 
TABS,ioos:station:wmo:42045:1,2009-06-02T04:00:00Z,26.2168,-96.4998,2.0,282.8229001,26.44959357,-99999.0,'11111222,11111222,99999999' 
TABS,ioos:station:wmo:42045:1,2009-06-02T04:30:00Z,26.2168,-96.4998,2.0,288.6280243,28.20767626,-99999.0,'11111222,11111222,99999999' 
TABS,ioos:station:wmo:42045:1,2009-06-02T05:00:00Z,26.2168,-96.4998,2.0,285.2370763,24.54271582,-99999.0,'11111222,11111222,99999999' 
TABS,ioos:station:wmo:42045:1,2009-06-02T05:30:00Z,26.2168,-96.4998,2.0,291.6829007,26.84974674,-99999.0,'11111222,11111222,99999999' 
TABS,ioos:station:wmo:42045:1,2009-06-02T06:00:00Z,26.2168,-96.4998,2.0,302.3170943,31.01387593,-99999.0,'11111222,11111222,99999999' 
TABS,ioos:station:wmo:42045:1,2009-06-02T06:30:00Z,26.2168,-96.4998,2.0,311.9860825,29.31477784,-99999.0,'11111222,11111222,99999999' 
TABS,ioos:station:wmo:42045:1,2009-06-02T07:00:00Z,26.2168,-96.4998,2.0,321.2281186,29.46223685,-99999.0,'11111222,11111222,99999999' 
TABS,ioos:station:wmo:42045:1,2009-06-02T07:30:00Z,26.2168,-96.4998,2.0,329.7173844,23.38033789,-99999.0,'11111222,11111222,99999999' 
TABS,ioos:station:wmo:42045:1,2009-06-02T08:00:00Z,26.2168,-96.4998,2.0,341.2473371,26.78174191,-99999.0,'11111222,11111222,99999999' 
TABS,ioos:station:wmo:42045:1,2009-06-02T08:30:00Z,26.2168,-96.4998,2.0,347.9565087,25.87964644,-99999.0,'11111222,11111222,99999999' 
TABS,ioos:station:wmo:42045:1,2009-06-02T09:00:00Z,26.2168,-96.4998,2.0,348.5553162,24.14000207,-99999.0,'11111222,11111222,99999999' 
TABS,ioos:station:wmo:42045:1,2009-06-02T09:30:00Z,26.2168,-96.4998,2.0,344.3495489,23.50132975,-99999.0,'11111222,11111222,99999999' 
TABS,ioos:station:wmo:42045:1,2009-06-02T10:00:00Z,26.2168,-96.4998,2.0,348.1947781,27.66517667,-99999.0,'11111222,11111222,99999999' 
TABS,ioos:station:wmo:42045:1,2009-06-02T10:30:00Z,26.2168,-96.4998,2.0,353.9312321,24.49729985,-99999.0,'11111222,11111222,99999999' 
TABS,ioos:station:wmo:42045:1,2009-06-02T11:00:00Z,26.2168,-96.4998,2.0,350.9805793,27.23679313,-99999.0,'11111222,11111222,99999999' 
TABS,ioos:station:wmo:42045:1,2009-06-02T11:30:00Z,26.2168,-96.4998,2.0,5.407654547,23.13294836,-99999.0,'11111222,11111222,99999999' 
TABS,ioos:station:wmo:42045:1,2009-06-02T12:00:00Z,26.2168,-96.4998,2.0,5.498246626,26.8234021,-99999.0,'11111222,11111222,99999999' 
TABS,ioos:station:wmo:42045:1,2009-06-02T12:30:00Z,26.2168,-96.4998,2.0,10.39241575,22.28557381,-99999.0,'11111222,11111222,99999999' 
TABS,ioos:station:wmo:42045:1,2009-06-02T13:00:00Z,26.2168,-96.4998,2.0,10.51873296,21.58267824,-99999.0,'11111222,11111222,99999999' 
TABS,ioos:station:wmo:42045:1,2009-06-02T13:30:00Z,26.2168,-96.4998,2.0,10.77527709,20.37931549,-99999.0,'11111222,11111222,99999999' 
TABS,ioos:station:wmo:42045:1,2009-06-02T14:00:00Z,26.2168,-96.4998,2.0,6.311525984,21.92286934,-99999.0,'11111222,11111222,99999999' 
TABS,ioos:station:wmo:42045:1,2009-06-02T14:30:00Z,26.2168,-96.4998,2.0,20.14795753,18.7258885,-99999.0,'11111222,11111222,99999999' 
TABS,ioos:station:wmo:42045:1,2009-06-02T15:00:00Z,26.2168,-96.4998,2.0,4.445740035,20.64210261,-99999.0,'11111222,11111222,99999999' 
TABS,ioos:station:wmo:42045:1,2009-06-02T15:30:00Z,26.2168,-96.4998,2.0,4.345723419,19.00463365,-99999.0,'11111222,11111222,99999999' 
TABS,ioos:station:wmo:42045:1,2009-06-02T16:00:00Z,26.2168,-96.4998,2.0,18.23121794,17.77211299,-99999.0,'11111222,11111222,99999999' 
TABS,ioos:station:wmo:42045:1,2009-06-02T16:30:00Z,26.2168,-96.4998,2.0,20.37014683,11.89378409,-99999.0,'11111222,11111222,99999999' 
TABS,ioos:station:wmo:42045:1,2009-06-02T17:00:00Z,26.2168,-96.4998,2.0,55.95840078,18.0780198,-99999.0,'11111222,11111222,99999999' 
TABS,ioos:station:wmo:42045:1,2009-06-02T17:30:00Z,26.2168,-96.4998,2.0,65.95902929,12.59233497,-99999.0,'11111222,11111222,99999999' 
TABS,ioos:station:wmo:42045:1,2009-06-02T18:00:00Z,26.2168,-96.4998,2.0,83.62469393,10.80683117,-99999.0,'11111222,11111222,99999999' 
TABS,ioos:station:wmo:42045:1,2009-06-02T18:30:00Z,26.2168,-96.4998,2.0,126.071668,17.08565773,-99999.0,'11111222,11111222,99999999' 
TABS,ioos:station:wmo:42045:1,2009-06-02T19:00:00Z,26.2168,-96.4998,2.0,148.7593913,25.56730725,-99999.0,'11111222,11111222,99999999' 
TABS,ioos:station:wmo:42045:1,2009-06-02T19:30:00Z,26.2168,-96.4998,2.0,150.0713385,30.18524805,-99999.0,'11111222,11111222,99999999' 
TABS,ioos:station:wmo:42045:1,2009-06-02T20:00:00Z,26.2168,-96.4998,2.0,160.3275643,31.33915442,-99999.0,'11111222,11111222,99999999' 
TABS,ioos:station:wmo:42045:1,2009-06-02T20:30:00Z,26.2168,-96.4998,2.0,173.0233705,30.13309974,-99999.0,'11111222,11111222,99999999' 
TABS,ioos:station:wmo:42045:1,2009-06-02T21:00:00Z,26.2168,-96.4998,2.0,178.5133038,32.38089715,-99999.0,'11111222,11111222,99999999' 
TABS,ioos:station:wmo:42045:1,2009-06-02T21:30:00Z,26.2168,-96.4998,2.0,183.5862267,31.81230265,-99999.0,'11111222,11111222,99999999' 
TABS,ioos:station:wmo:42045:1,2009-06-02T22:00:00Z,26.2168,-96.4998,2.0,186.6139489,34.64055715,-99999.0,'11111222,11111222,99999999' 
TABS,ioos:station:wmo:42045:1,2009-06-02T22:30:00Z,26.2168,-96.4998,2.0,186.2242984,31.72704209,-99999.0,'11111222,11111222,99999999' 
TABS,ioos:station:wmo:42045:1,2009-06-02T23:00:00Z,26.2168,-96.4998,2.0,183.361567,35.98191907,-99999.0,'11111222,11111222,99999999' 
TABS,ioos:station:wmo:42045:1,2009-06-02T23:30:00Z,26.2168,-96.4998,2.0,181.646759,33.05365487,-99999.0,'11111222,11111222,99999999' 
TABS,ioos:station:wmo:42045:1,2009-06-03T00:00:00Z,26.2168,-96.4998,2.0,178.6933674,32.01832288,-99999.0,'11111222,11111222,99999999' 
TABS,ioos:station:wmo:42045:1,2009-06-03T00:30:00Z,26.2168,-96.4998,2.0,199.1640942,41.73279765,-99999.0,'11111222,11111222,99999999' 
TABS,ioos:station:wmo:42045:1,2009-06-03T01:00:00Z,26.2168,-96.4998,2.0,206.4419107,45.87974826,-99999.0,'11111222,11111222,99999999' 
TABS,ioos:station:wmo:42045:1,2009-06-03T01:30:00Z,26.2168,-96.4998,2.0,209.1793791,39.60621795,-99999.0,'11111222,11111222,99999999' 
TABS,ioos:station:wmo:42045:1,2009-06-03T02:00:00Z,26.2168,-96.4998,2.0,212.7608784,43.79656265,-99999.0,'11111222,11111222,99999999' 
TABS,ioos:station:wmo:42045:1,2009-06-03T02:30:00Z,26.2168,-96.4998,2.0,217.5377415,48.0232652,-99999.0,'11111222,11111222,99999999' 
TABS,ioos:station:wmo:42045:1,2009-06-03T03:00:00Z,26.2168,-96.4998,2.0,223.101394,42.26575446,-99999.0,'11111222,11111222,99999999' 
TABS,ioos:station:wmo:42045:1,2009-06-03T03:30:00Z,26.2168,-96.4998,2.0,234.0361756,42.85936304,-99999.0,'11111222,11111222,99999999' 
TABS,ioos:station:wmo:42045:1,2009-06-03T04:00:00Z,26.2168,-96.4998,2.0,240.7532647,40.91564615,-99999.0,'11111222,11111222,99999999' 
TABS,ioos:station:wmo:42045:1,2009-06-03T04:30:00Z,26.2168,-96.4998,2.0,247.4862644,43.04007435,-99999.0,'11111222,11111222,99999999' 
TABS,ioos:station:wmo:42045:1,2009-06-03T05:00:00Z,26.2168,-96.4998,2.0,254.4922389,45.817955,-99999.0,'11111222,11111222,99999999' 
TABS,ioos:station:wmo:42045:1,2009-06-03T05:30:00Z,26.2168,-96.4998,2.0,260.2768958,43.04831936,-99999.0,'11111222,11111222,99999999' 
TABS,ioos:station:wmo:42045:1,2009-06-03T06:00:00Z,26.2168,-96.4998,2.0,264.9585056,36.87262535,-99999.0,'11111222,11111222,99999999' 
TABS,ioos:station:wmo:42045:1,2009-06-03T06:30:00Z,26.2168,-96.4998,2.0,273.7186265,32.99946212,-99999.0,'11111222,11111222,99999999' 
TABS,ioos:station:wmo:42045:1,2009-06-03T07:00:00Z,26.2168,-96.4998,2.0,274.2185301,33.58096187,-99999.0,'11111222,11111222,99999999' 
TABS,ioos:station:wmo:42045:1,2009-06-03T07:30:00Z,26.2168,-96.4998,2.0,278.2796228,30.97279613,-99999.0,'11111222,11111222,99999999' 
TABS,ioos:station:wmo:42045:1,2009-06-03T08:00:00Z,26.2168,-96.4998,2.0,278.9277562,25.00288783,-99999.0,'11111222,11111222,99999999' 
TABS,ioos:station:wmo:42045:1,2009-06-03T08:30:00Z,26.2168,-96.4998,2.0,289.9539145,26.49021706,-99999.0,'11111222,11111222,99999999' 
TABS,ioos:station:wmo:42045:1,2009-06-03T09:00:00Z,26.2168,-96.4998,2.0,288.74859,22.5568637,-99999.0,'11111222,11111222,99999999' 
TABS,ioos:station:wmo:42045:1,2009-06-03T09:30:00Z,26.2168,-96.4998,2.0,302.3083493,21.27339418,-99999.0,'11111222,11111222,99999999' 
TABS,ioos:station:wmo:42045:1,2009-06-03T10:00:00Z,26.2168,-96.4998,2.0,293.0322843,22.56904517,-99999.0,'11111222,11111222,99999999' 
TABS,ioos:station:wmo:42045:1,2009-06-03T10:30:00Z,26.2168,-96.4998,2.0,290.2066031,19.74520955,-99999.0,'11111222,11111222,99999999' 
TABS,ioos:station:wmo:42045:1,2009-06-03T11:00:00Z,26.2168,-96.4998,2.0,311.6735734,14.37849784,-99999.0,'11111222,11111222,99999999' 
TABS,ioos:station:wmo:42045:1,2009-06-03T11:30:00Z,26.2168,-96.4998,2.0,325.5375983,14.80906817,-99999.0,'11111222,11111222,99999999' 
TABS,ioos:station:wmo:42045:1,2009-06-03T12:00:00Z,26.2168,-96.4998,2.0,332.4736357,15.18951283,-99999.0,'11111222,11111222,99999999' 
TABS,ioos:station:wmo:42045:1,2009-06-03T12:30:00Z,26.2168,-96.4998,2.0,326.2770965,14.391699,-99999.0,'11111222,11111222,99999999' 
TABS,ioos:station:wmo:42045:1,2009-06-03T13:00:00Z,26.2168,-96.4998,2.0,356.7819038,18.16865433,-99999.0,'11111222,11111222,99999999' 
TABS,ioos:station:wmo:42045:1,2009-06-03T13:30:00Z,26.2168,-96.4998,2.0,8.139814513,17.02147467,-99999.0,'11111222,11111222,99999999' 
TABS,ioos:station:wmo:42045:1,2009-06-03T14:00:00Z,26.2168,-96.4998,2.0,23.66544746,13.70228083,-99999.0,'11111222,11111222,99999999' 
TABS,ioos:station:wmo:42045:1,2009-06-03T14:30:00Z,26.2168,-96.4998,2.0,29.80083092,17.82752086,-99999.0,'11111222,11111222,99999999' 
TABS,ioos:station:wmo:42045:1,2009-06-03T15:00:00Z,26.2168,-96.4998,2.0,46.38819101,19.55724163,-99999.0,'11111222,11111222,99999999' 
TABS,ioos:station:wmo:42045:1,2009-06-03T15:30:00Z,26.2168,-96.4998,2.0,58.82837771,17.4843959,-99999.0,'11111222,11111222,99999999' 
TABS,ioos:station:wmo:42045:1,2009-06-03T16:00:00Z,26.2168,-96.4998,2.0,73.22568515,16.80507661,-99999.0,'11111222,11111222,99999999' 
TABS,ioos:station:wmo:42045:1,2009-06-03T16:30:00Z,26.2168,-96.4998,2.0,82.67042369,15.28489778,-99999.0,'11111222,11111222,99999999' 
TABS,ioos:station:wmo:42045:1,2009-06-03T17:00:00Z,26.2168,-96.4998,2.0,97.66753736,14.54000344,-99999.0,'11111222,11111222,99999999' 
TABS,ioos:station:wmo:42045:1,2009-06-03T17:30:00Z,26.2168,-96.4998,2.0,101.7391117,12.82831634,-99999.0,'11111222,11111222,99999999' 
TABS,ioos:station:wmo:42045:1,2009-06-03T18:00:00Z,26.2168,-96.4998,2.0,105.5619278,15.39434312,-99999.0,'11111222,11111222,99999999' 
TABS,ioos:station:wmo:42045:1,2009-06-03T18:30:00Z,26.2168,-96.4998,2.0,126.0669693,16.98566749,-99999.0,'11111222,11111222,99999999' 
TABS,ioos:station:wmo:42045:1,2009-06-03T19:00:00Z,26.2168,-96.4998,2.0,125.7654538,20.75385506,-99999.0,'11111222,11111222,99999999' 
TABS,ioos:station:wmo:42045:1,2009-06-03T19:30:00Z,26.2168,-96.4998,2.0,131.706684,23.38728714,-99999.0,'11111222,11111222,99999999' 
TABS,ioos:station:wmo:42045:1,2009-06-03T20:00:00Z,26.2168,-96.4998,2.0,140.9627663,22.5301154,-99999.0,'11111222,11111222,99999999' 
TABS,ioos:station:wmo:42045:1,2009-06-03T20:30:00Z,26.2168,-96.4998,2.0,145.487852,25.32744361,-99999.0,'11111222,11111222,99999999' 
TABS,ioos:station:wmo:42045:1,2009-06-03T21:00:00Z,26.2168,-96.4998,2.0,147.6022504,25.08437761,-99999.0,'11111222,11111222,99999999' 
TABS,ioos:station:wmo:42045:1,2009-06-03T21:30:00Z,26.2168,-96.4998,2.0,149.2681842,27.9442087,-99999.0,'11111222,11111222,99999999' 
TABS,ioos:station:wmo:42045:1,2009-06-03T22:00:00Z,26.2168,-96.4998,2.0,163.7316699,31.69920031,-99999.0,'11111222,11111222,99999999' 
TABS,ioos:station:wmo:42045:1,2009-06-03T22:30:00Z,26.2168,-96.4998,2.0,165.5381477,29.07112141,-99999.0,'11111222,11111222,99999999' 
TABS,ioos:station:wmo:42045:1,2009-06-03T23:00:00Z,26.2168,-96.4998,2.0,176.8113858,37.03733252,-99999.0,'11111222,11111222,99999999' 
TABS,ioos:station:wmo:42045:1,2009-06-03T23:30:00Z,26.2168,-96.4998,2.0,175.9669656,31.70851305,-99999.0,'11111222,11111222,99999999' 
TABS,ioos:station:wmo:42045:1,2009-06-04T00:00:00Z,26.2168,-96.4998,2.0,186.3807859,34.10126391,-99999.0,'11111222,11111222,99999999' 
TABS,ioos:station:wmo:42045:1,2009-06-04T00:30:00Z,26.2168,-96.4998,2.0,187.120891,36.46125066,-99999.0,'11111222,11111222,99999999' 
TABS,ioos:station:wmo:42045:1,2009-06-04T01:00:00Z,26.2168,-96.4998,2.0,186.7767594,33.89683761,-99999.0,'11111222,11111222,99999999' 
TABS,ioos:station:wmo:42045:1,2009-06-04T01:30:00Z,26.2168,-96.4998,2.0,190.7196583,33.70826753,-99999.0,'11111222,11111222,99999999' 
TABS,ioos:station:wmo:42045:1,2009-06-04T02:00:00Z,26.2168,-96.4998,2.0,191.2546962,32.68865247,-99999.0,'11111222,11111222,99999999' 
TABS,ioos:station:wmo:42045:1,2009-06-04T02:30:00Z,26.2168,-96.4998,2.0,203.2344375,33.33345767,-99999.0,'11111222,11111222,99999999' 
TABS,ioos:station:wmo:42045:1,2009-06-04T03:00:00Z,26.2168,-96.4998,2.0,218.3349356,33.0828188,-99999.0,'11111222,11111222,99999999' 
TABS,ioos:station:wmo:42045:1,2009-06-04T03:30:00Z,26.2168,-96.4998,2.0,216.701142,35.37215289,-99999.0,'11111222,11111222,99999999' 
TABS,ioos:station:wmo:42045:1,2009-06-04T04:00:00Z,26.2168,-96.4998,2.0,214.7891334,33.82629746,-99999.0,'11111222,11111222,99999999' 
TABS,ioos:station:wmo:42045:1,2009-06-04T04:30:00Z,26.2168,-96.4998,2.0,221.3445707,35.60454044,-99999.0,'11111222,11111222,99999999' 
TABS,ioos:station:wmo:42045:1,2009-06-04T05:00:00Z,26.2168,-96.4998,2.0,225.1838351,33.00084393,-99999.0,'11111222,11111222,99999999' 
TABS,ioos:station:wmo:42045:1,2009-06-04T05:30:00Z,26.2168,-96.4998,2.0,234.7677583,34.63415222,-99999.0,'11111222,11111222,99999999' 
TABS,ioos:station:wmo:42045:1,2009-06-04T06:00:00Z,26.2168,-96.4998,2.0,241.0178283,32.87708168,-99999.0,'11111222,11111222,99999999' 
TABS,ioos:station:wmo:42045:1,2009-06-04T06:30:00Z,26.2168,-96.4998,2.0,238.6834215,27.32024158,-99999.0,'11111222,11111222,99999999' 
TABS,ioos:station:wmo:42045:1,2009-06-04T07:00:00Z,26.2168,-96.4998,2.0,248.2129005,28.99075715,-99999.0,'11111222,11111222,99999999' 
TABS,ioos:station:wmo:42045:1,2009-06-04T07:30:00Z,26.2168,-96.4998,2.0,252.2523866,25.55620668,-99999.0,'11111222,11111222,99999999' 
TABS,ioos:station:wmo:42045:1,2009-06-04T08:00:00Z,26.2168,-96.4998,2.0,255.2054426,24.2023222,-99999.0,'11111222,11111222,99999999' 
TABS,ioos:station:wmo:42045:1,2009-06-04T08:30:00Z,26.2168,-96.4998,2.0,258.5642476,18.81346592,-99999.0,'11111222,11111222,99999999' 
TABS,ioos:station:wmo:42045:1,2009-06-04T09:00:00Z,26.2168,-96.4998,2.0,265.2623657,14.40922274,-99999.0,'11111222,11111222,99999999' 
TABS,ioos:station:wmo:42045:1,2009-06-04T09:30:00Z,26.2168,-96.4998,2.0,262.6116998,11.35425911,-99999.0,'11111222,11111222,99999999' 
TABS,ioos:station:wmo:42045:1,2009-06-04T10:00:00Z,26.2168,-96.4998,2.0,272.3910973,10.06876358,-99999.0,'11111222,11111222,99999999' 
TABS,ioos:station:wmo:42045:1,2009-06-04T10:30:00Z,26.2168,-96.4998,2.0,315.1999513,2.029408781,-99999.0,'11133222,11111222,99999999' 
TABS,ioos:station:wmo:42045:1,2009-06-04T11:00:00Z,26.2168,-96.4998,2.0,307.0202206,5.348018325,-99999.0,'11133222,11111222,99999999' 
TABS,ioos:station:wmo:42045:1,2009-06-04T11:30:00Z,26.2168,-96.4998,2.0,355.7110672,7.621345026,-99999.0,'11133222,11111222,99999999' 
TABS,ioos:station:wmo:42045:1,2009-06-04T12:00:00Z,26.2168,-96.4998,2.0,17.38901763,5.889142552,-99999.0,'11133222,11111222,99999999' 
TABS,ioos:station:wmo:42045:1,2009-06-04T12:30:00Z,26.2168,-96.4998,2.0,46.06820538,8.34531006,-99999.0,'11133222,11111222,99999999' 
TABS,ioos:station:wmo:42045:1,2009-06-04T13:00:00Z,26.2168,-96.4998,2.0,61.07711049,7.609073531,-99999.0,'11133222,11111222,99999999' 
TABS,ioos:station:wmo:42045:1,2009-06-04T13:30:00Z,26.2168,-96.4998,2.0,87.91521183,14.01927958,-99999.0,'11111222,11111222,99999999' 
TABS,ioos:station:wmo:42045:1,2009-06-04T14:00:00Z,26.2168,-96.4998,2.0,93.92206538,10.23396795,-99999.0,'11111222,11111222,99999999' 
TABS,ioos:station:wmo:42045:1,2009-06-04T14:30:00Z,26.2168,-96.4998,2.0,126.8536968,14.22200056,-99999.0,'11111222,11111222,99999999' 
TABS,ioos:station:wmo:42045:1,2009-06-04T15:00:00Z,26.2168,-96.4998,2.0,99.26781459,16.95127724,-99999.0,'11111222,11111222,99999999' 
TABS,ioos:station:wmo:42045:1,2009-06-04T15:30:00Z,26.2168,-96.4998,2.0,107.6214903,25.17110447,-99999.0,'11111222,11111222,99999999' 
TABS,ioos:station:wmo:42045:1,2009-06-04T16:00:00Z,26.2168,-96.4998,2.0,117.8288005,26.56200482,-99999.0,'11111222,11111222,99999999' 